Borger, TX

6:45 AM CDT on September 20, 2017 (GMT -0500)
Hutchinson County

Weather History for KBGD - May, 2013

Change the Weather History Date:

Saturday, May 25, 2013

  Actual Average Record
Temperature  
Mean Temperature 77 °F 71 °F  
Max Temperature 91 °F 84 °F 102 °F (2012)
Min Temperature 62 °F 58 °F 44 °F (2002)
Degree Days  
Heating Degree Days 0 1  
Month to date heating degree days 79 58  
Since 1 July heating degree days 3592 3761  
Cooling Degree Days 12 7  
Month to date cooling degree days 151 109  
Year to date cooling degree days 197 153  
Growing Degree Days 26 (Base 50)    
Moisture  
Dew Point 56 °F    
Average Humidity 58    
Maximum Humidity 84    
Minimum Humidity 32    
Precipitation  
Precipitation 0.00 in 0.12 in 1.66 in (1974)
Month to date precipitation 0.96 2.10  
Year to date precipitation 4.35 6.26  
Snow  
Snow 0.00 in - T in (2000)
Month to date snowfall T  
Since 1 July snowfall 27.5  
Snow Depth 0.00 in    
Sea Level Pressure  
Sea Level Pressure 29.95 in    
Wind  
Wind Speed 13 mph (South)    
Max Wind Speed 26 mph    
Max Gust Speed 38 mph    
Visibility 10 miles    
Events      
T = Trace of Precipitation, MM = Missing Value Source: NWS Daily Summary

Daily Weather History Graph

Daily Weather History Graph

Search for Another Location

Airport or City:

Trip Planner

Search our weather history database for the weather conditions in past years. The results will help you decide how hot, cold, wet, or windy it might be!

Date:

Astronomy

May. 25, 2013 Rise Set
Actual Time 6:33 AM CDT 8:51 PM CDT
Civil Twilight 6:04 AM CDT 9:20 PM CDT
Nautical Twilight 5:28 AM CDT 9:56 PM CDT
Astronomical Twilight 4:49 AM CDT 10:35 PM CDT
Moon 9:42 PM CDT (5/25) 7:01 AM CDT (5/25)
Length of Visible Light 15h 16m
Length of Day
14h 17m
Full, 100% of the Moon is Illuminated
May 25
Full
May 31
Last Quarter
Jun 8
New
Jun 16
First Quarter
Jun 23
Full

Hourly Weather History & Observations

Time (CDT) Temp. Heat Index Dew Point Humidity Pressure Visibility Wind Dir Wind Speed Gust Speed Precip Events Conditions
12:51 AM 70.0 °F - 57.0 °F 63% 30.00 in 10.0 mi South 16.1 mph 26.5 mph N/A   Clear
1:51 AM 68.0 °F - 57.0 °F 68% 30.00 in 10.0 mi South 10.4 mph 25.3 mph N/A   Clear
2:51 AM 66.9 °F - 57.0 °F 70% 29.99 in 10.0 mi South 11.5 mph 20.7 mph N/A   Clear
3:51 AM 66.9 °F - 57.0 °F 70% 30.00 in 10.0 mi SSW 8.1 mph - N/A   Clear
4:51 AM 64.9 °F - 57.9 °F 78% 29.99 in 10.0 mi SW 4.6 mph - N/A   Clear
5:51 AM 64.9 °F - 57.9 °F 78% 29.99 in 10.0 mi SSE 9.2 mph - N/A   Clear
6:27 AM 62.6 °F - 57.2 °F 82% 30.11 in 10.0 mi Variable 5.8 mph - N/A   Mostly Cloudy
6:34 AM 62.6 °F - 57.2 °F 82% 30.11 in 10.0 mi SE 4.6 mph - N/A   Scattered Clouds
6:51 AM 62.1 °F - 57.0 °F 84% 30.01 in 10.0 mi SE 3.5 mph - N/A   Partly Cloudy
7:22 AM 62.6 °F - 57.2 °F 82% 30.12 in 10.0 mi South 6.9 mph - N/A   Mostly Cloudy
7:51 AM 64.0 °F - 59.0 °F 84% 30.01 in 10.0 mi SSW 9.2 mph - N/A   Overcast
8:51 AM 66.9 °F - 57.9 °F 73% 30.01 in 10.0 mi SSW 10.4 mph 19.6 mph N/A   Overcast
9:29 AM 69.8 °F - 57.2 °F 64% 30.12 in 10.0 mi South 13.8 mph - N/A   Overcast
9:51 AM 69.1 °F - 57.9 °F 68% 30.01 in 10.0 mi South 11.5 mph 21.9 mph N/A   Overcast
10:17 AM 73.4 °F - 57.2 °F 57% 30.11 in 10.0 mi SSW 11.5 mph 21.9 mph N/A   Scattered Clouds
10:51 AM 75.0 °F - 57.0 °F 53% 29.97 in 10.0 mi South 17.3 mph 23.0 mph N/A   Clear
11:51 AM 79.0 °F - 57.0 °F 47% 29.96 in 10.0 mi South 12.7 mph 23.0 mph N/A   Clear
12:51 PM 82.9 °F 82.1 °F 55.9 °F 39% 29.94 in 10.0 mi South 12.7 mph 20.7 mph N/A   Clear
1:51 PM 84.9 °F 83.6 °F 55.0 °F 36% 29.91 in 10.0 mi South 15.0 mph 25.3 mph N/A   Clear
2:51 PM 88.0 °F 86.1 °F 55.0 °F 32% 29.88 in 10.0 mi South 12.7 mph 27.6 mph N/A   Clear
3:51 PM 89.1 °F 87.1 °F 55.0 °F 31% 29.86 in 10.0 mi SSE 16.1 mph 28.8 mph N/A   Clear
4:51 PM 90.0 °F 87.9 °F 55.0 °F 30% 29.83 in 10.0 mi South 12.7 mph 25.3 mph N/A   Clear
5:51 PM 89.1 °F 87.1 °F 55.0 °F 31% 29.81 in 10.0 mi South 16.1 mph 26.5 mph N/A   Clear
6:51 PM 87.1 °F 85.3 °F 55.0 °F 33% 29.81 in 10.0 mi SSE 21.9 mph 27.6 mph N/A   Clear
7:51 PM 84.0 °F 82.9 °F 55.0 °F 37% 29.80 in 10.0 mi SSE 17.3 mph 29.9 mph N/A   Clear
8:51 PM 82.0 °F 81.4 °F 55.0 °F 39% 29.84 in 10.0 mi SSE 15.0 mph 24.2 mph N/A   Clear
9:51 PM 80.1 °F 80.2 °F 55.9 °F 43% 29.86 in 10.0 mi SSW 13.8 mph 28.8 mph N/A   Partly Cloudy
10:51 PM 75.0 °F - 51.1 °F 43% 29.78 in 10.0 mi South 23.0 mph 34.5 mph N/A   Clear
11:51 PM 78.1 °F - 46.0 °F 32% 29.79 in 10.0 mi SE 8.1 mph 20.7 mph N/A   Clear